Portada
METAR-TAF:

METAR-TAF

Aeroports :

Sullivan County International Airport

Monticello, Nova York, Estats Units d'Amèrica

latitud: 41-42N, longitud: 074-48W, altitud: 428 m

Observació

L'informe es va fer fa 30 minuts, a les 16:56 UTC
Vent 15 kt del Nord-Oest amb ràfegues de 23 kt
Temperatura -5°C
Humitat 79%
Pressió 1013 hPa
Visibilitat: 14.5 km
Cel ennuvolat a una alçada de 2100 ft
neu

METAR: KMSV 121656Z AUTO 31015G23KT 9SM -SN BKN021 M05/M08 A2991 RMK AO2 PK WND 31029/1626 SNB21 SLP142 P0000 T10501083 FZRANO

Hora: 12:26 (17:26 UTC)


TAF: manca

Observacions i pronòstics meteorològics de més de 4000 aeroports (METAR i TAF).

Les estacions disponibles són els punts grocs i vermells al mapa.

Posi el ratolí al punt desitjat per veure el nom de l'estació.

Feu clic per veure les observacions i els pronòstics meteorològics.

Per canviar el mapa: feu clic els botons verds amb una creu de color negre per apropar; al botó verd amb un guió per allunyar la imatge; o en les fletxes verdes per a mapes adjacents.


METAR-TAF: